| time (UTC) | temp C | wind direction | speed KPH | gust KPH | rain 1hr cm | rain 24hr cm | rain mn cm | humidity % | barometer mb |
| 20260506134504 | 11 | 58 | 0.0 | 4.8 | 0.00 | 0.00 | 0.00 | 61 | |
| 20260506133008 | 11 | 127 | 0.0 | 4.8 | 0.00 | 0.00 | 0.00 | 61 | |
| 20260506131512 | 11 | 45 | 1.6 | 6.4 | 0.00 | 0.00 | 0.00 | 61 | |
| 20260506130013 | 12 | 60 | 1.6 | 8.0 | 0.00 | 0.00 | 0.00 | 60 | |
| 20260506124512 | 12 | 71 | 1.6 | 6.4 | 0.00 | 0.00 | 0.00 | 59 | |
| 20260506123011 | 12 | 74 | 1.6 | 6.4 | 0.00 | 0.00 | 0.00 | 58 | |
| 20260506121510 | 12 | 33 | 0.0 | 6.4 | 0.00 | 0.00 | 0.00 | 57 | |
| 20260506120007 | 12 | 229 | 0.0 | 11.3 | 0.00 | 0.00 | 0.00 | 56 | |
| 20260506114506 | 12 | 280 | 1.6 | 8.0 | 0.00 | 0.00 | 0.00 | 56 | |
| 20260506113016 | 12 | 48 | 0.0 | 8.0 | 0.00 | 0.00 | 0.00 | 56 | |
| 20260506111510 | 13 | 258 | 1.6 | 9.7 | 0.00 | 0.00 | 0.00 | 56 | |
| 20260506110013 | 13 | 57 | 1.6 | 4.8 | 0.00 | 0.00 | 0.00 | 56 | |
| 20260506104513 | 13 | 58 | 3.2 | 11.3 | 0.00 | 0.00 | 0.00 | 56 | |
| 20260506103014 | 13 | 109 | 1.6 | 4.8 | 0.00 | 0.00 | 0.00 | 56 | |
| 20260506101519 | 13 | 54 | 1.6 | 6.4 | 0.00 | 0.00 | 0.00 | 56 | |
| 20260506100016 | 13 | 242 | 1.6 | 6.4 | 0.00 | 0.00 | 0.00 | 56 | |
| 20260506094520 | 13 | 70 | 0.0 | 6.4 | 0.00 | 0.00 | 0.00 | 56 | |
| 20260506093018 | 14 | 359 | 0.0 | 4.8 | 0.00 | 0.00 | 0.00 | 56 | |
| 20260506091519 | 14 | 29 | 1.6 | 6.4 | 0.00 | 0.00 | 0.00 | 56 | |
| 20260506090024 | 15 | 60 | 0.0 | 3.2 | 0.00 | 0.00 | 0.00 | 57 | |
| 20260506084520 | 15 | 205 | 0.0 | 4.8 | 0.00 | 0.00 | 0.00 | 57 | |
| 20260506083015 | 15 | 31 | 1.6 | 4.8 | 0.00 | 0.00 | 0.00 | 57 | |
| 20260506081513 | 15 | 273 | 0.0 | 3.2 | 0.00 | 0.00 | 0.00 | 57 | |
| 20260506073017 | 15 | 63 | 0.0 | 4.8 | 0.00 | 0.00 | 0.00 | 57 | |
| 20260506071519 | 15 | 64 | 0.0 | 3.2 | 0.00 | 0.00 | 0.00 | 58 | |
| 20260506061542 | 16 | 19 | 0.0 | 4.8 | 0.00 | 0.00 | 0.00 | 58 | |
| 20260506044530 | 17 | 309 | 0.0 | 4.8 | 0.00 | 0.00 | 0.00 | 57 | |
| 20260506043037 | 17 | 249 | 1.6 | 8.0 | 0.00 | 0.00 | 0.00 | 56 | |
| 20260506041534 | 18 | 231 | 0.0 | 6.4 | 0.00 | 0.00 | 0.00 | 56 | |
| 20260506040032 | 18 | 345 | 0.0 | 8.0 | 0.00 | 0.00 | 0.00 | 55 | |
| 20260506034532 | 18 | 298 | 1.6 | 4.8 | 0.00 | 0.00 | 0.00 | 54 | |
| 20260506033026 | 19 | 238 | 1.6 | 6.4 | 0.00 | 0.00 | 0.00 | 54 | |
| 20260506031536 | 20 | 52 | 1.6 | 6.4 | 0.00 | 0.00 | 0.00 | 54 | |
| 20260506030030 | 20 | 342 | 1.6 | 6.4 | 0.00 | 0.00 | 0.00 | 54 | |
| 20260506024540 | 20 | 80 | 1.6 | 4.8 | 0.00 | 0.00 | 0.00 | 53 | |
| 20260506023025 | 20 | 62 | 1.6 | 6.4 | 0.00 | 0.00 | 0.00 | 52 | |
| 20260506021526 | 21 | 62 | 1.6 | 8.0 | 0.00 | 0.00 | 0.00 | 51 | |
| 20260506020026 | 21 | 57 | 1.6 | 8.0 | 0.00 | 0.00 | 0.00 | 51 | |
| 20260506014530 | 21 | 39 | 1.6 | 6.4 | 0.00 | 0.00 | 0.00 | 50 | |
| 20260506013024 | 22 | 24 | 0.0 | 4.8 | 0.00 | 0.00 | 0.00 | 50 | |
| 20260506011532 | 22 | 51 | 0.0 | 6.4 | 0.00 | 0.00 | 0.00 | 50 | |
| 20260506010034 | 23 | 61 | 0.0 | 8.0 | 0.00 | 0.00 | 0.00 | 49 | |
| 20260506004539 | 23 | 77 | 1.6 | 6.4 | 0.00 | 0.00 | 0.00 | 48 | |
| 20260506003046 | 24 | 34 | 1.6 | 8.0 | 0.00 | 0.00 | 0.00 | 47 | |
| 20260506001551 | 25 | 60 | 0.0 | 4.8 | 0.00 | 0.00 | 0.00 | 46 | |
| 20260506000054 | 26 | 59 | 1.6 | 8.0 | 0.00 | 0.00 | 0.00 | 45 | |
| 20260505234607 | 27 | 58 | 1.6 | 8.0 | 0.00 | 0.00 | 0.00 | 44 | |
| 20260505233054 | 27 | 66 | 3.2 | 9.7 | 0.00 | 0.00 | 0.00 | 42 | |
| 20260505231607 | 28 | 245 | 1.6 | 6.4 | 0.00 | 0.00 | 0.00 | 40 | |
| 20260505230057 | 30 | 119 | 1.6 | 9.7 | 0.00 | 0.00 | 0.00 | 38 | |
| 20260505224600 | 30 | 354 | 1.6 | 4.8 | 0.00 | 0.00 | 0.00 | 37 | |
| 20260505223001 | 31 | 256 | 1.6 | 6.4 | 0.00 | 0.00 | 0.00 | 35 | |
| 20260505221503 | 31 | 217 | 1.6 | 8.0 | 0.00 | 0.00 | 0.00 | 34 | |
| 20260505220005 | 32 | 73 | 1.6 | 9.7 | 0.00 | 0.00 | 0.00 | 31 | |
| 20260505214513 | 33 | 213 | 1.6 | 4.8 | 0.00 | 0.00 | 0.00 | 32 | |
| 20260505213008 | 33 | 293 | 1.6 | 9.7 | 0.00 | 0.00 | 0.00 | 32 | |
| 20260505211510 | 33 | 252 | 3.2 | 11.3 | 0.00 | 0.00 | 0.00 | 32 | |
| 20260505210007 | 33 | 268 | 3.2 | 8.0 | 0.00 | 0.00 | 0.00 | 36 | 720.7 |
| 20260505204510 | 32 | 265 | 3.2 | 8.0 | 0.00 | 0.00 | 0.00 | 37 | 720.7 |
| 20260505203009 | 32 | 224 | 3.2 | 11.3 | 0.00 | 0.00 | 0.00 | 38 | 720.7 |
| 20260505201513 | 32 | 257 | 3.2 | 11.3 | 0.00 | 0.00 | 0.00 | 38 | 720.7 |
| 20260505200013 | 32 | 233 | 0.0 | 11.3 | 0.00 | 0.00 | 0.00 | 40 | 720.7 |
| 20260505194509 | 31 | 245 | 4.8 | 11.3 | 0.00 | 0.00 | 0.00 | 42 | 720.7 |
| 20260505193010 | 31 | 221 | 4.8 | 9.7 | 0.00 | 0.00 | 0.00 | 44 | 720.7 |
| 20260505191510 | 30 | 233 | 4.8 | 11.3 | 0.00 | 0.00 | 0.00 | 46 | 720.7 |
| 20260505190007 | 29 | 203 | 1.6 | 14.5 | 0.00 | 0.00 | 0.00 | 47 | 720.7 |
| 20260505184502 | 28 | 235 | 3.2 | 14.5 | 0.00 | 0.00 | 0.00 | 49 | 720.7 |
| 20260505183107 | 28 | 261 | 4.8 | 16.1 | 0.00 | 0.00 | 0.00 | 49 | 720.7 |
| 20260505181600 | 28 | 224 | 4.8 | 12.9 | 0.00 | 0.00 | 0.00 | 49 | 720.7 |
| 20260505180105 | 27 | 235 | 4.8 | 12.9 | 0.00 | 0.00 | 0.00 | 51 | 720.7 |
| 20260505174605 | 27 | 221 | 4.8 | 17.7 | 0.00 | 0.00 | 0.00 | 52 | 720.7 |
| 20260505173059 | 27 | 232 | 8.0 | 17.7 | 0.00 | 0.00 | 0.00 | 52 | 720.7 |
| 20260505171600 | 27 | 230 | 3.2 | 16.1 | 0.00 | 0.00 | 0.00 | 53 | 720.7 |
| 20260505170059 | 26 | 235 | 4.8 | 14.5 | 0.00 | 0.00 | 0.00 | 54 | 720.7 |
| 20260505164605 | 26 | 208 | 3.2 | 12.9 | 0.00 | 0.00 | 0.00 | 56 | 720.7 |
| 20260505163057 | 25 | 234 | 3.2 | 17.7 | 0.00 | 0.00 | 0.00 | 56 | 809.3 |
| 20260505161604 | 25 | 249 | 4.8 | 11.3 | 0.00 | 0.00 | 0.00 | 56 | 809.3 |
| 20260505153054 | 23 | 228 | 4.8 | 12.9 | 0.00 | 0.00 | 0.00 | 59 | 809.3 |
| 20260505151600 | 23 | 218 | 1.6 | 12.9 | 0.00 | 0.00 | 0.00 | 60 | 809.3 |
| 20260505140113 | 22 | 227 | 4.8 | 11.3 | 0.00 | 0.00 | 0.00 | 66 | 809.3 |